Park Rapids, MN

1:43 AM CST on February 22, 2018 (GMT -0600)
Park Rapids Municipal

Weather History for KPKD - April, 2013

Change the Weather History Date:

Monday, April 8, 2013

  Actual Average Record
Temperature  
Mean Temperature 32 °F -  
Max Temperature 37 °F 48 °F 77 °F (1988)
Min Temperature 24 °F 25 °F 3 °F (1997)
Degree Days  
Heating Degree Days 34    
Moisture  
Dew Point 29 °F    
Average Humidity 84    
Maximum Humidity 96    
Minimum Humidity 69    
Precipitation  
Precipitation 0.04 in - - ()
Sea Level Pressure  
Sea Level Pressure 29.91 in    
Wind  
Wind Speed 8 mph (NNE)    
Max Wind Speed 15 mph    
Max Gust Speed 21 mph    
Visibility 8 miles    
Events Rain , Snow    
Averages and records for this station are not official NWS values.
T = Trace of Precipitation, MM = Missing Value Source: NWS Daily Summary

Daily Weather History Graph

Daily Weather History Graph

Search for Another Location

Airport or City:

Trip Planner

Search our weather history database for the weather conditions in past years. The results will help you decide how hot, cold, wet, or windy it might be!

Date:

Astronomy

Apr. 08, 2013 Rise Set
Actual Time 6:45 AM CDT 7:59 PM CDT
Civil Twilight 6:14 AM CDT 8:30 PM CDT
Nautical Twilight 5:36 AM CDT 9:08 PM CDT
Astronomical Twilight 4:56 AM CDT 9:49 PM CDT
Moon 5:41 AM CDT (4/8) 6:31 PM CDT (4/8)
Length of Visible Light 14h 16m
Length of Day
13h 14m
Waning Crescent, 3% of the Moon is Illuminated
Apr 8
Waning Crescent
Apr 10
New
Apr 18
First Quarter
Apr 25
Full
May 2
Last Quarter

Hourly Weather History & Observations

Time (CDT) Temp. Windchill Dew Point Humidity Pressure Visibility Wind Dir Wind Speed Gust Speed Precip Events Conditions
12:29 AM 33.8 °F 28.6 °F 30.2 °F 87% 29.77 in 3.0 mi ENE 5.8 mph - 0.01 in Snow Light Snow
12:53 AM 33.1 °F 26.9 °F 30.9 °F 92% 29.82 in 6.0 mi ENE 6.9 mph - 0.02 in   Overcast
1:53 AM 33.1 °F 27.7 °F 30.9 °F 92% 29.81 in 2.5 mi East 5.8 mph - 0.00 in   Overcast
2:04 AM 33.8 °F 29.6 °F 32.0 °F 93% 29.76 in 3.0 mi East 4.6 mph - 0.00 in   Overcast
2:22 AM 33.8 °F 29.6 °F 32.0 °F 93% 29.77 in 3.0 mi NNE 4.6 mph - 0.00 in   Overcast
2:38 AM 33.8 °F 28.6 °F 30.2 °F 87% 29.76 in 3.0 mi North 5.8 mph - 0.00 in   Overcast
2:53 AM 33.1 °F 28.7 °F 32.0 °F 96% 29.81 in 2.5 mi NE 4.6 mph - 0.01 in   Overcast
3:00 AM 33.8 °F 29.6 °F 32.0 °F 93% 29.76 in 3.0 mi NNE 4.6 mph - 0.00 in   Overcast
3:53 AM 33.1 °F 27.7 °F 32.0 °F 96% 29.81 in 6.0 mi NNE 5.8 mph - 0.00 in   Overcast
4:53 AM 33.1 °F 27.7 °F 30.9 °F 92% 29.81 in 4.0 mi NNE 5.8 mph - 0.00 in Rain Light Rain
5:53 AM 33.1 °F 27.7 °F 30.9 °F 92% 29.81 in 6.0 mi NNE 5.8 mph - 0.01 in   Overcast
6:02 AM 33.8 °F 29.6 °F 30.2 °F 87% 29.76 in 6.0 mi NNE 4.6 mph - N/A   Overcast
6:53 AM 33.1 °F 27.7 °F 30.9 °F 92% 29.81 in 5.0 mi NE 5.8 mph - N/A   Overcast
7:53 AM 33.1 °F 25.5 °F 32.0 °F 96% 29.82 in 7.0 mi NNE 9.2 mph - N/A   Overcast
8:53 AM 34.0 °F 28.0 °F 32.0 °F 92% 29.84 in 6.0 mi NE 6.9 mph - N/A   Overcast
9:32 AM 33.8 °F 27.0 °F 32.0 °F 93% 29.80 in 9.0 mi NNE 8.1 mph - N/A   Overcast
9:53 AM 34.0 °F 28.0 °F 32.0 °F 92% 29.87 in 9.0 mi North 6.9 mph - N/A   Overcast
10:53 AM 35.1 °F 28.6 °F 32.0 °F 89% 29.88 in 8.0 mi NNE 8.1 mph - N/A   Overcast
11:53 AM 36.0 °F 28.5 °F 32.0 °F 86% 29.89 in 10.0 mi NNE 10.4 mph 16.1 mph N/A   Overcast
12:53 PM 36.0 °F 29.0 °F 32.0 °F 86% 29.91 in 10.0 mi North 9.2 mph - N/A   Overcast
1:53 PM 36.0 °F 27.5 °F 30.9 °F 82% 29.92 in 10.0 mi North 12.7 mph - N/A   Overcast
2:53 PM 36.0 °F 28.0 °F 30.9 °F 82% 29.95 in 10.0 mi North 11.5 mph - N/A   Overcast
3:12 PM 35.6 °F 26.6 °F 30.2 °F 81% 29.90 in 10.0 mi North 13.8 mph - N/A   Overcast
3:39 PM 35.6 °F 28.6 °F 30.2 °F 81% 29.91 in 10.0 mi NNE 9.2 mph - N/A   Overcast
3:53 PM 35.1 °F 26.9 °F 30.0 °F 82% 29.97 in 10.0 mi North 11.5 mph - N/A   Overcast
4:43 PM 37.4 °F 29.3 °F 30.2 °F 75% 29.93 in 10.0 mi North 12.7 mph - N/A   Overcast
4:53 PM 37.0 °F 29.3 °F 30.0 °F 76% 30.00 in 10.0 mi North 11.5 mph - N/A   Overcast
5:12 PM 35.6 °F 26.2 °F 30.2 °F 81% 29.96 in 9.0 mi North 15.0 mph - N/A   Overcast
5:53 PM 35.1 °F 25.5 °F 28.0 °F 76% 30.04 in 10.0 mi North 15.0 mph 20.7 mph N/A   Overcast
6:53 PM 34.0 °F 25.5 °F 27.0 °F 75% 30.07 in 10.0 mi North 11.5 mph - N/A   Overcast
7:53 PM 34.0 °F 27.2 °F 25.0 °F 70% 30.08 in 10.0 mi North 8.1 mph - N/A   Overcast
8:00 PM 33.8 °F 27.7 °F 26.6 °F 75% 30.03 in 10.0 mi North 6.9 mph - N/A   Mostly Cloudy
8:53 PM 30.9 °F 20.7 °F 21.9 °F 69% 30.10 in 10.0 mi North 13.8 mph - N/A   Mostly Cloudy
9:53 PM 28.9 °F 19.8 °F 19.9 °F 69% 30.14 in 10.0 mi NNW 10.4 mph - N/A   Overcast
10:53 PM 26.1 °F 14.0 °F 17.1 °F 69% 30.18 in 10.0 mi NNW 15.0 mph - N/A   Overcast
11:53 PM 24.1 °F 13.1 °F 16.0 °F 71% 30.20 in 10.0 mi NNW 11.5 mph 20.7 mph N/A   Overcast